Weather in Bunbury

Australia     33°20′28″S   115°38′37″E
temp.,
°C
wind,
m/s
gust,
m/s
humid.,
%
clouds,
%
prec.,
mm/h
press.,
hPa
HPBL,
m
18 may, tue
tue1823:00+17nnw239493 0.7 101592
02:00+17nw129479 1.4 1015108
05:00+17wsw129470 1.1 101599
08:00+17ene119263 1.5 101758
11:00+20sw227333 0.4 1017717
14:00+21w336740 0.8 1015900
17:00+18wsw347776 0.1 1016173
20:00+15s348632 0.1 1017152
19 may, wed
wed1923:00+13se12880 0.0 101741
02:00+14sse228595 0.0 101762
05:00+15sse237894 0.0 1018129
08:00+14se22810 0.0 102069
11:00+19ssw336024 0.0 10201050
14:00+20wsw33540 0.0 10181047
17:00+17sw356988 0.0 1020218
20:00+14sse33800 0.0 102199
20 may, thu
thu2023:00+13se22860 0.0 102238
02:00+12ese22890 0.0 102245
05:00+11ese23880 0.0 102260
08:00+12e24820 0.0 1023102
11:00+20n12490 0.0 1023670
14:00+21wnw33490 0.0 1020828
17:00+16sw22700 0.0 102146
20:00+13ese11794 0.0 102248
21 may, fri
fri2123:00+12e118239 0.0 102125
02:00+12e11845 0.0 101924
05:00+11ene11870 0.0 101925
08:00+13ne22855 0.0 101969
11:00+20wnw466173 0.0 10181289
14:00+19wnw5761100 0.1 10161218
17:00+18w4770100 0.1 1016457
20:00+17w5973100 0.7 1017445
22 may, sat
sat2223:00+14s599071 0.4 1017432
02:00+13sse1288100 0.4 101696
05:00+13ese248830 0.0 1015150
08:00+12ese2586100 0.0 1016191
11:00+13e248388 0.2 1014330
14:00+15wsw1173100 0.3 1011687
17:00+14sw2282100 0.3 1011111
20:00+12ssw348950 1.1 1011182